User: anonymous   Login
Location: Ar Ranvel
(48.3000°N, 4.8833°W)
Time: 09:54:02
(UTC+00:00)
Language:

Cosmos 1300 - Orbit

View from above orbital plane
View from above orbital plane
View from above satellite
View from above satellite

Ground track
Ground track

The orbit data is extracted from the following two-line orbital elements,

1 12785U 81082A   21264.95073230  .00000773  00000-0  36197-4 0  9993
2 12785  82.5046 331.4917 0001066 136.3415  36.4126 15.18240275187850
Epoch (UTC): 21 September 2021 22:49:03
Eccentricity: 0.0001066
inclination: 82.5046°
perigee height: 510 km
apogee height: 512 km
right ascension of ascending node: 331.4917°
argument of perigee: 136.3415°
revolutions per day: 15.18240275
mean anomaly at epoch: 36.4126°
orbit number at epoch: 18785

The dashed part of the orbit path shows where the satellite is in the earth's shadow,  

DLR